GW3548 Weather Reports


time (UTC)temp
C
wind
direction
speed
KPH
gust
KPH
rain 1hr
cm
rain 24hr
cm
rain mn
cm
humidity
%
barometer
mb
20260505022733 10 80 0.0 0.0 0.00 0.13 0.13 87 1009.4
20260505022230 10 161 0.0 0.0 0.00 0.13 0.13 85 1008.9
20260505021726 10 180 1.6 3.2 0.00 0.13 0.13 85 1009.4
20260505021223 11 233 1.6 3.2 0.00 0.13 0.13 86 1009.5
20260505020719 11 234 1.6 3.2 0.00 0.13 0.13 86 1009.4
20260505020214 11 291 4.8 4.8 0.00 0.13 0.13 86 1009.6
20260505015712 11 296 4.8 4.8 0.13 0.13 0.13 85 1009.5
20260505015209 11 295 0.0 0.0 0.30 0.13 0.13 84 1009.0
20260505014706 11 282 4.8 4.8 0.30 0.10 0.10 82 1009.1
20260505014203 12 316 8.0 11.3 0.13 0.08 0.08 78 1009.4
20260505013700 12 283 11.3 19.3 0.00 0.05 0.05 74 1009.3
20260505013157 12 277 11.3 14.5 0.00 0.05 0.05 69 1009.3
20260505012655 13 312 3.2 3.2 0.00 0.05 0.05 66 1009.3
20260505012147 13 291 6.4 14.5 0.00 0.05 0.05 62 1009.3
20260505011642 13 280 9.7 14.5 0.00 0.05 0.05 61 1009.0
20260505011139 13 276 16.1 19.3 0.00 0.05 0.05 61 1009.0
20260505010639 13 315 9.7 11.3 0.00 0.05 0.05 60 1009.0
20260505010136 14 335 11.3 19.3 0.00 0.05 0.05 57 1008.8
20260505005632 14 307 8.0 19.3 0.00 0.05 0.05 59 1008.4
20260505005129 14 325 4.8 4.8 0.00 0.05 0.05 61 1008.2
20260505004627 14 328 1.6 3.2 0.00 0.05 0.05 61 1008.4
20260505004123 14 307 1.6 4.8 0.00 0.05 0.05 60 1008.2
20260505003621 14 295 3.2 4.8 0.00 0.05 0.05 58 1008.4
20260505003118 14 250 3.2 3.2 0.00 0.05 0.05 60 1008.4
20260505002614 14 280 0.0 3.2 0.00 0.05 0.05 63 1008.4
20260505002112 13 60 0.0 0.0 0.00 0.05 0.05 67 1008.4
20260505001609 13 74 0.0 0.0 0.00 0.05 0.05 65 1008.6
20260505001107 13 67 0.0 0.0 0.00 0.05 0.05 68 1008.3
20260505000603 13 117 0.0 0.0 0.00 0.05 0.05 70 1008.6
20260504235557 13 134 3.2 4.8 0.00 0.05 0.05 65 1008.7
20260504235054 12 45 1.6 4.8 0.18 0.05 0.05 61 1008.6
20260504234551 12 151 8.0 16.1 0.36 0.05 0.05 74 1008.7
20260504234049 12 167 4.8 4.8 0.18 0.03 0.03 65 1008.9
20260504233544 14 179 16.1 16.1 0.00 0.00 0.00 67 1008.7
20260504233041 15 233 20.9 24.1 0.00 0.00 0.00 54 1008.9
20260504232538 15 166 12.9 16.1 0.00 0.00 0.00 51 1008.3
20260504232036 15 175 25.7 38.6 0.00 0.00 0.00 50 1008.2
20260504231532 17 211 27.4 33.8 0.00 0.00 0.00 40 1007.8
20260504231028 17 263 8.0 14.5 0.00 0.00 0.00 37 1007.4
20260504230524 18 255 0.0 0.0 0.00 0.00 0.00 36 1007.4
20260504230023 18 276 0.0 0.0 0.00 0.00 0.00 36 1007.1
20260504225520 18 282 4.8 8.0 0.00 0.00 0.00 36 1007.1
20260504225017 18 340 12.9 14.5 0.00 0.00 0.00 35 1007.0
20260504224514 18 348 19.3 22.5 0.00 0.00 0.00 35 1007.0
20260504224011 18 294 8.0 8.0 0.00 0.00 0.00 35 1007.2
20260504223507 18 341 8.0 14.5 0.00 0.00 0.00 34 1007.1
20260504223003 18 297 9.7 14.5 0.00 0.00 0.00 35 1007.1
20260504222500 18 305 11.3 16.1 0.00 0.00 0.00 34 1007.1
20260504221958 18 323 11.3 14.5 0.00 0.00 0.00 35 1006.6
20260504221455 18 316 14.5 19.3 0.00 0.00 0.00 34 1007.0
20260504220952 18 303 0.0 0.0 0.00 0.00 0.00 35 1006.8
20260504220448 18 312 9.7 16.1 0.00 0.00 0.00 35 1007.2
20260504215945 18 265 16.1 19.3 0.00 0.00 0.00 36 1007.5
20260504215442 18 291 11.3 11.3 0.00 0.00 0.00 36 1007.3
20260504214938 18 297 12.9 19.3 0.00 0.00 0.00 36 1007.5
20260504214435 18 271 19.3 27.4 0.00 0.00 0.00 36 1007.6
20260504213932 18 313 19.3 27.4 0.00 0.00 0.00 36 1007.5
20260504213427 18 275 19.3 24.1 0.00 0.00 0.00 36 1007.9
20260504212925 18 312 22.5 27.4 0.00 0.00 0.00 35 1007.5
20260504212421 18 321 19.3 33.8 0.00 0.00 0.00 33 1007.8
20260504211919 18 309 27.4 33.8 0.00 0.00 0.00 33 1007.6
20260504211415 18 295 16.1 22.5 0.00 0.00 0.00 32 1007.8
20260504210912 18 281 12.9 19.3 0.00 0.00 0.00 32 1007.6
20260504210409 19 3 17.7 22.5 0.00 0.00 0.00 31 1007.4
20260504205906 19 211 25.7 43.5 0.00 0.00 0.00 31 1007.3
20260504205404 19 295 6.4 14.5 0.00 0.00 0.00 32 1007.3
20260504204902 20 271 27.4 35.4 0.00 0.00 0.00 32 1007.2
20260504204400 20 288 32.2 41.8 0.00 0.00 0.00 31 1007.1
20260504203859 21 331 29.0 41.8 0.00 0.00 0.00 30 1006.8
20260504203356 20 328 38.6 57.9 0.00 0.00 0.00 29 1007.1
20260504202852 20 311 45.1 57.9 0.00 0.00 0.00 29 1007.0
20260504202349 21 309 33.8 51.5 0.00 0.00 0.00 29 1006.6
20260504201845 21 339 30.6 43.5 0.00 0.00 0.00 29 1007.0
20260504201343 21 291 41.8 57.9 0.00 0.00 0.00 28 1007.1
20260504200840 21 309 27.4 38.6 0.00 0.00 0.00 27 1006.8
20260504200337 20 270 14.5 19.3 0.00 0.00 0.00 28 1006.7
20260504195833 20 345 27.4 43.5 0.00 0.00 0.00 29 1007.0
20260504195329 20 29 40.2 51.5 0.00 0.00 0.00 29 1006.8
20260504194826 21 309 37.0 46.7 0.00 0.00 0.00 27 1006.8
20260504194322 22 280 19.3 30.6 0.00 0.00 0.00 24 1006.5
20260504193818 21 323 27.4 43.5 0.00 0.00 0.00 24 1006.4
20260504193315 22 329 25.7 35.4 0.00 0.00 0.00 24 1006.5
20260504192814 22 282 11.3 16.1 0.00 0.00 0.00 24 1006.4
20260504192312 22 283 8.0 14.5 0.00 0.00 0.00 23 1006.4
20260504191810 22 307 30.6 43.5 0.00 0.00 0.00 24 1006.0
20260504191307 22 257 30.6 35.4 0.00 0.00 0.00 25 1006.2
20260504190802 22 262 24.1 33.8 0.00 0.00 0.00 24 1006.2
20260504190259 22 292 30.6 43.5 0.00 0.00 0.00 24 1006.3
20260504185755 23 256 27.4 33.8 0.00 0.00 0.00 24 1006.3
20260504185252 23 272 16.1 22.5 0.00 0.00 0.00 23 1006.3
20260504184748 22 235 22.5 27.4 0.00 0.00 0.00 24 1006.0
20260504184244 22 236 25.7 33.8 0.00 0.00 0.00 24 1005.9
20260504183740 22 244 22.5 27.4 0.00 0.00 0.00 24 1006.3
20260504183237 22 243 27.4 30.6 0.00 0.00 0.00 25 1006.5
20260504182735 22 231 25.7 41.8 0.00 0.00 0.00 24 1006.5
20260504182232 22 242 25.7 33.8 0.00 0.00 0.00 24 1006.3
20260504181730 22 256 27.4 35.4 0.00 0.00 0.00 24 1006.5
20260504181227 22 282 24.1 30.6 0.00 0.00 0.00 25 1006.5
20260504180726 22 179 4.8 8.0 0.00 0.00 0.00 24 1006.5
20260504180224 21 257 17.7 22.5 0.00 0.00 0.00 25 1006.6
20260504175722 22 234 22.5 30.6 0.00 0.00 0.00 25 1006.6
20260504175218 22 236 19.3 24.1 0.00 0.00 0.00 24 1006.7
20260504174716 22 209 29.0 38.6 0.00 0.00 0.00 24 1006.7
20260504174214 22 242 20.9 33.8 0.00 0.00 0.00 24 1006.7
20260504173710 22 244 32.2 38.6 0.00 0.00 0.00 24 1007.1
20260504173207 21 252 29.0 38.6 0.00 0.00 0.00 24 1006.7
20260504172704 22 214 33.8 38.6 0.00 0.00 0.00 24 1006.8
20260504172200 21 236 33.8 38.6 0.00 0.00 0.00 24 1007.2
20260504171657 21 264 25.7 30.6 0.00 0.00 0.00 24 1007.0
20260504171154 21 240 24.1 27.4 0.00 0.00 0.00 25 1007.1
20260504170650 21 256 30.6 38.6 0.00 0.00 0.00 24 1007.1
20260504170148 21 216 29.0 33.8 0.00 0.00 0.00 24 1007.0
20260504151033 16 218 12.9 16.1 0.00 0.00 0.00 33 1008.0
20260504150531 16 189 8.0 11.3 0.00 0.00 0.00 34 1007.8
20260504140957 10 231 4.8 4.8 0.00 0.00 0.00 42 1008.1
20260504140453 10 211 4.8 4.8 0.00 0.00 0.00 43 1008.7
20260504130418 6 265 4.8 4.8 0.00 0.00 0.00 51 1008.4
20260504110305 5 234 4.8 4.8 0.00 0.00 0.00 60 1008.4
20260504100223 6 219 6.4 8.0 0.00 0.00 0.00 59 1008.6
20260504081616 10 286 6.4 8.0 0.00 0.00 0.00 49 1009.3
20260504081112 10 306 4.8 8.0 0.00 0.00 0.00 49 1009.4
20260504080609 10 298 4.8 4.8 0.00 0.00 0.00 49 1009.4
20260504080105 10 294 6.4 8.0 0.00 0.00 0.00 49 1009.4
20260504050421 13 326 4.8 4.8 0.00 0.00 0.00 41 1009.5
20260504045918 13 315 3.2 3.2 0.00 0.00 0.00 42 1009.6
20260504045414 13 55 3.2 4.8 0.00 0.00 0.00 41 1009.3
20260504044910 13 46 8.0 11.3 0.00 0.00 0.00 41 1009.7
20260504044408 13 52 4.8 8.0 0.00 0.00 0.00 40 1009.4
20260504043906 13 23 8.0 11.3 0.00 0.00 0.00 40 1009.6
20260504043402 14 40 4.8 11.3 0.00 0.00 0.00 39 1009.6
20260504042900 15 39 6.4 8.0 0.00 0.00 0.00 38 1009.8
20260504042356 15 324 9.7 11.3 0.00 0.00 0.00 37 1009.7
20260504041852 15 2 8.0 11.3 0.00 0.00 0.00 36 1009.9
20260504041348 16 26 12.9 22.5 0.00 0.00 0.00 34 1010.2
20260504040845 16 348 4.8 8.0 0.00 0.00 0.00 32 1010.1
20260504040342 16 32 14.5 19.3 0.00 0.00 0.00 31 1009.8
20260504035838 17 342 4.8 4.8 0.00 0.00 0.00 31 1009.8
20260504035337 17 50 4.8 8.0 0.00 0.00 0.00 31 1009.6
20260504034833 17 332 0.0 0.0 0.00 0.00 0.00 28 1009.7
20260504034330 16 30 9.7 11.3 0.00 0.00 0.00 30 1010.1
20260504033827 16 295 4.8 4.8 0.00 0.00 0.00 30 1009.6
20260504033325 16 245 1.6 3.2 0.00 0.00 0.00 30 1009.4
20260504032821 16 235 11.3 14.5 0.00 0.00 0.00 30 1009.3
20260504032319 16 205 9.7 14.5 0.00 0.00 0.00 31 1009.3
20260504031815 16 262 0.0 0.0 0.00 0.00 0.00 32 1008.9
20260504031312 15 319 3.2 4.8 0.00 0.00 0.00 33 1009.4
20260504030803 16 194 1.6 3.2 0.00 0.00 0.00 31 1009.0
20260504030301 16 155 3.2 3.2 0.00 0.00 0.00 32 1008.9
20260504025756 16 163 4.8 4.8 0.00 0.00 0.00 31 1009.0
20260504025254 17 176 4.8 4.8 0.00 0.00 0.00 30 1009.3
20260504024750 17 178 4.8 4.8 0.00 0.00 0.00 30 1009.3
20260504024247 17 175 6.4 8.0 0.00 0.00 0.00 30 1009.3
20260504023743 17 174 4.8 4.8 0.00 0.00 0.00 29 1009.3
20260504023240 18 178 1.6 3.2 0.00 0.00 0.00 29 1009.1